Date,TemperatureHighF,TemperatureAvgF,TemperatureLowF,DewpointHighF,DewpointAvgF,DewpointLowF,HumidityHigh,HumidityAvg,HumidityLow,PressureMaxIn,PressureMinIn,WindSpeedMaxMPH,WindSpeedAvgMPH,GustSpeedMaxMPH,PrecipitationSumIn
2013-11-1,71,65,59,63,58,54,94,80,65,29.76,29.42,6,3,14,0.05
2013-11-2,66,57,48,54,46,40,92,69,39,29.69,29.54,4,1,5,0.00
2013-11-3,52,43,34,48,31,16,86,65,37,30.39,29.68,4,1,6,0.01
2013-11-4,42,35,29,26,20,13,80,56,32,30.68,30.39,4,1,8,0.00
2013-11-5,50,39,28,35,28,23,83,66,45,30.70,30.49,3,0,4,0.00
2013-11-6,61,51,40,50,42,33,86,72,51,30.49,30.01,4,1,6,0.00
2013-11-7,67,54,41,58,50,34,93,84,69,30.01,29.64,5,2,8,0.24
2013-11-8,49,41,34,36,28,23,78,62,49,30.07,29.78,6,2,17,0.01
2013-11-9,46,40,32,30,25,22,71,56,39,30.18,30.01,5,2,11,0.00
2013-11-10,57,46,41,45,37,30,93,71,51,30.00,29.70,6,2,10,0.05
2013-11-11,52,46,40,33,29,25,66,53,35,30.07,29.82,6,2,10,0.00
2013-11-12,49,37,28,40,26,17,90,67,54,30.17,29.85,6,2,10,0.11
2013-11-13,37,30,25,18,16,12,73,57,39,30.27,30.15,5,2,10,0.01
2013-11-14,51,40,29,26,22,17,63,50,34,30.15,30.01,6,2,11,0.00
2013-11-15,62,47,33,35,24,16,68,44,17,30.17,30.07,4,1,6,0.00
2013-11-16,59,47,38,35,30,24,79,56,26,30.28,30.15,2,0,5,0.00
2013-11-17,57,47,35,54,43,31,96,85,70,30.28,29.81,3,0,5,0.04
2013-11-18,65,60,49,62,48,33,97,69,43,29.80,29.49,6,2,10,0.17
2013-11-19,49,41,32,33,23,17,58,50,40,30.24,29.61,7,4,11,0.00
2013-11-20,41,34,28,18,16,13,65,48,32,30.60,30.25,5,2,11,0.00
2013-11-21,48,37,25,31,22,17,73,56,34,30.62,30.35,4,1,7,0.00
2013-11-22,47,44,41,46,41,31,95,88,68,30.35,29.79,1,0,3,0.18
2013-11-23,48,41,31,47,28,16,95,61,34,29.88,29.75,6,4,9,0.00
2013-11-24,31,25,21,19,5,-4,69,44,25,30.17,29.76,9,6,20,0.00
2013-11-25,33,26,18,18,4,-6,57,40,20,30.36,30.17,5,2,8,0.00
2013-11-26,43,37,31,41,24,18,94,60,45,30.32,30.01,4,1,9,0.10
2013-11-27,63,52,38,61,50,34,96,93,85,30.00,29.18,6,3,10,1.26
2013-11-28,38,32,26,34,18,7,84,57,36,30.41,29.42,8,4,16,0.00
2013-11-29,34,28,23,18,12,4,70,53,33,30.72,30.41,4,1,7,0.00
2013-11-30,34,27,17,24,16,9,74,64,53,30.78,30.41,2,1,6,0.00